,,,PA_Meas_PMT16A,,PR_Meas_QMR101_102,,RH_Meas_QMH101,,SR_Meas_QMS101,,TA_Meas_QMH101,,GenWind,,GenWind,
date,time,status,PA,status,PR,status,RH,status,SR,status,TA,status,DirAvg,status,SpdAvg,
2008-09-18, 00:00:04,VALID,1011.98,VALID,0,VALID,94.2543,VALID,0,VALID,23.4602,VALID,85,VALID,0,
2008-09-18, 00:01:04,VALID,1011.96,VALID,0,VALID,94.2619,VALID,0,VALID,23.4602,VALID,85,VALID,0,
2008-09-18, 00:02:04,VALID,1011.95,VALID,0,VALID,94.2772,VALID,0.105969,VALID,23.4389,VALID,85,VALID,0,
2008-09-18, 00:03:04,VALID,1011.94,VALID,0,VALID,94.3153,VALID,0,VALID,23.4602,VALID,85,VALID,0,
2008-09-18, 00:04:04,VALID,1011.95,VALID,0,VALID,94.3534,VALID,0,VALID,23.4389,VALID,85,VALID,0,
2008-09-18, 00:05:04,VALID,1011.93,VALID,0,VALID,94.3763,VALID,0,VALID,23.4602,VALID,85,VALID,0,
2008-09-18, 00:06:04,VALID,1011.95,VALID,0,VALID,94.3839,VALID,0,VALID,23.4389,VALID,85,VALID,0,
2008-09-18, 00:07:04,VALID,1011.91,VALID,0,VALID,94.3763,VALID,0,VALID,23.4194,VALID,85,VALID,0,
2008-09-18, 00:08:04,VALID,1011.93,VALID,0,VALID,94.3687,VALID,0,VALID,23.4602,VALID,85,VALID,0,
2008-09-18, 00:09:04,VALID,1011.92,VALID,0,VALID,94.3763,VALID,0,VALID,23.4407,VALID,85,VALID,0,
2008-09-18, 00:10:04,VALID,1011.9,VALID,0,VALID,94.3839,VALID,0,VALID,23.4602,VALID,85,VALID,0,
2008-09-18, 00:11:04,VALID,1011.92,VALID,0,VALID,94.3229,VALID,0,VALID,23.4194,VALID,85,VALID,0,
2008-09-18, 00:12:04,VALID,1011.9,VALID,0,VALID,94.3229,VALID,0,VALID,23.4407,VALID,85,VALID,0,
2008-09-18, 00:13:04,VALID,1011.88,VALID,0,VALID,94.3229,VALID,0,VALID,23.4407,VALID,85,VALID,0,
2008-09-18, 00:14:04,VALID,1011.88,VALID,0,VALID,94.3534,VALID,0,VALID,23.4407,VALID,85,VALID,0,
2008-09-18, 00:15:04,VALID,1011.87,VALID,0,VALID,94.3916,VALID,0,VALID,23.4797,VALID,85,VALID,0,
2008-09-18, 00:16:04,VALID,1011.84,VALID,0,VALID,94.4068,VALID,0,VALID,23.4602,VALID,85,VALID,0,
2008-09-18, 00:17:04,VALID,1011.86,VALID,0,VALID,94.3916,VALID,0,VALID,23.4584,VALID,85,VALID,0,
2008-09-18, 00:18:04,VALID,1011.85,VALID,0,VALID,94.3611,VALID,0,VALID,23.4602,VALID,85,VALID,0,
2008-09-18, 00:19:04,VALID,1011.87,VALID,0,VALID,94.3306,VALID,0,VALID,23.4407,VALID,85,VALID,0,
2008-09-18, 00:20:04,VALID,1011.87,VALID,0,VALID,94.3001,VALID,0,VALID,23.4407,VALID,85,VALID,0,
2008-09-18, 00:21:04,VALID,1011.87,VALID,0,VALID,94.2619,VALID,0,VALID,23.4407,VALID,85,VALID,0,
2008-09-18, 00:22:04,VALID,1011.87,VALID,0,VALID,94.2924,VALID,0,VALID,23.4407,VALID,85,VALID,0,
2008-09-18, 00:23:04,VALID,1011.85,VALID,0,VALID,94.3077,VALID,0,VALID,23.4602,VALID,85,VALID,0,
2008-09-18, 00:24:04,VALID,1011.82,VALID,0,VALID,94.3153,VALID,0,VALID,23.4992,VALID,85,VALID,0,
2008-09-18, 00:25:04,VALID,1011.83,VALID,0,VALID,94.3153,VALID,0,VALID,23.4602,VALID,85,VALID,0,
2008-09-18, 00:26:04,VALID,1011.78,VALID,0,VALID,94.2848,VALID,0,VALID,23.4212,VALID,85,VALID,0.188672,
2008-09-18, 00:27:04,VALID,1011.77,VALID,0,VALID,94.3001,VALID,0,VALID,23.4212,VALID,85,VALID,0.327734,
2008-09-18, 00:28:04,VALID,1011.77,VALID,0,VALID,94.3153,VALID,0,VALID,23.4407,VALID,85,VALID,0.289453,
2008-09-18, 00:29:04,VALID,1011.81,VALID,0,VALID,94.3611,VALID,0,VALID,23.4407,VALID,85,VALID,0.330469,
2008-09-18, 00:30:04,VALID,1011.79,VALID,0,VALID,94.3687,VALID,0,VALID,23.4602,VALID,85,VALID,0.328125,
2008-09-18, 00:31:04,VALID,1011.77,VALID,0,VALID,94.3458,VALID,0,VALID,23.4602,VALID,85,VALID,0.302734,
2008-09-18, 00:32:04,VALID,1011.76,VALID,0,VALID,94.3077,VALID,0,VALID,23.4389,VALID,85,VALID,0.238672,
2008-09-18, 00:33:04,VALID,1011.79,VALID,0,VALID,94.2848,VALID,0,VALID,23.4602,VALID,85,VALID,0.137891,
2008-09-18, 00:34:04,VALID,1011.76,VALID,0,VALID,94.2619,VALID,0,VALID,23.4407,VALID,85,VALID,0.115234,
2008-09-18, 00:35:04,VALID,1011.74,VALID,0,VALID,94.2619,VALID,0,VALID,23.4389,VALID,85,VALID,0.16875,
2008-09-18, 00:36:04,VALID,1011.76,VALID,0,VALID,94.1857,VALID,0,VALID,23.3805,VALID,85,VALID,0.00351562,
2008-09-18, 00:37:04,VALID,1011.74,VALID,0,VALID,94.1628,VALID,0,VALID,23.3823,VALID,85,VALID,0.120312,
2008-09-18, 00:38:04,VALID,1011.72,VALID,0,VALID,94.1704,VALID,0,VALID,23.361,VALID,85,VALID,0.0605469,
2008-09-18, 00:39:04,VALID,1011.72,VALID,0,VALID,94.1933,VALID,0,VALID,23.361,VALID,85,VALID,0,
2008-09-18, 00:40:04,VALID,1011.71,VALID,0,VALID,94.2619,VALID,0,VALID,23.3415,VALID,85,VALID,0,
2008-09-18, 00:41:04,VALID,1011.7,VALID,0,VALID,94.3077,VALID,0,VALID,23.3415,VALID,85,VALID,0,
2008-09-18, 00:42:04,VALID,1011.68,VALID,0,VALID,94.3458,VALID,0,VALID,23.3628,VALID,85,VALID,0,
2008-09-18, 00:43:04,VALID,1011.67,VALID,0,VALID,94.3992,VALID,0,VALID,23.361,VALID,85,VALID,0,
2008-09-18, 00:44:04,VALID,1011.65,VALID,0,VALID,94.4526,VALID,0,VALID,23.3415,VALID,85,VALID,0,
2008-09-18, 00:45:04,VALID,1011.65,VALID,0,VALID,94.445,VALID,0,VALID,23.3415,VALID,85,VALID,0,
2008-09-18, 00:46:04,VALID,1011.62,VALID,0,VALID,94.4373,VALID,0,VALID,23.3415,VALID,85,VALID,0,
2008-09-18, 00:47:04,VALID,1011.62,VALID,0,VALID,94.4602,VALID,0,VALID,23.3415,VALID,85,VALID,0,
2008-09-18, 00:48:04,VALID,1011.64,VALID,0,VALID,94.4831,VALID,0,VALID,23.3628,VALID,85,VALID,0,
2008-09-18, 00:49:04,VALID,1011.64,VALID,0,VALID,94.5136,VALID,0,VALID,23.3823,VALID,85,VALID,0,
2008-09-18, 00:50:04,VALID,1011.63,VALID,0,VALID,94.5517,VALID,0,VALID,23.3823,VALID,85,VALID,0,
2008-09-18, 00:51:04,VALID,1011.62,VALID,0,VALID,94.5746,VALID,0,VALID,23.3805,VALID,85,VALID,0,
2008-09-18, 00:52:04,VALID,1011.6,VALID,0,VALID,94.6051,VALID,0,VALID,23.361,VALID,85,VALID,0,
2008-09-18, 00:53:04,VALID,1011.57,VALID,0,VALID,94.5975,VALID,0,VALID,23.361,VALID,85,VALID,0,
2008-09-18, 00:54:04,VALID,1011.58,VALID,0,VALID,94.5593,VALID,0,VALID,23.3628,VALID,85,VALID,0,
2008-09-18, 00:55:04,VALID,1011.54,VALID,0,VALID,94.5593,VALID,0,VALID,23.361,VALID,85,VALID,0,
2008-09-18, 00:56:04,VALID,1011.55,VALID,0,VALID,94.5593,VALID,0,VALID,23.4017,VALID,85,VALID,0,
2008-09-18, 00:57:04,VALID,1011.54,VALID,0,VALID,94.5365,VALID,0,VALID,23.3823,VALID,85,VALID,0,
2008-09-18, 00:58:04,VALID,1011.55,VALID,0,VALID,94.5288,VALID,0,VALID,23.361,VALID,85,VALID,0,
2008-09-18, 00:59:04,VALID,1011.51,VALID,0,VALID,94.5136,VALID,0,VALID,23.4017,VALID,85,VALID,0,
2008-09-18, 01:00:04,VALID,1011.53,VALID,0,VALID,94.4983,VALID,0,VALID,23.4017,VALID,85,VALID,0,
2008-09-18, 01:01:04,VALID,1011.53,VALID,0,VALID,94.4755,VALID,0,VALID,23.4017,VALID,85,VALID,0,
2008-09-18, 01:02:04,VALID,1011.52,VALID,0,VALID,94.4831,VALID,0,VALID,23.4017,VALID,85,VALID,0,
2008-09-18, 01:03:04,VALID,1011.51,VALID,0,VALID,94.4678,VALID,0,VALID,23.4017,VALID,85,VALID,0,
2008-09-18, 01:04:04,VALID,1011.5,VALID,0,VALID,94.4983,VALID,0,VALID,23.4212,VALID,85,VALID,0,
2008-09-18, 01:05:04,VALID,1011.51,VALID,0,VALID,94.4831,VALID,0,VALID,23.4407,VALID,85,VALID,0,
2008-09-18, 01:06:04,VALID,1011.52,VALID,0,VALID,94.4907,VALID,0.105969,VALID,23.4194,VALID,85,VALID,0,
2008-09-18, 01:07:04,VALID,1011.5,VALID,0,VALID,94.5212,VALID,0,VALID,23.4389,VALID,85,VALID,0,
2008-09-18, 01:08:04,VALID,1011.5,VALID,0,VALID,94.5288,VALID,0.105969,VALID,23.4389,VALID,85,VALID,0,
2008-09-18, 01:09:04,VALID,1011.51,VALID,0,VALID,94.5212,VALID,0.105969,VALID,23.4177,VALID,85,VALID,0,
2008-09-18, 01:10:04,VALID,1011.49,VALID,0,VALID,94.5136,VALID,0.105969,VALID,23.4177,VALID,85,VALID,0,
2008-09-18, 01:11:04,VALID,1011.49,VALID,0,VALID,94.506,VALID,0.211938,VALID,23.4194,VALID,85,VALID,0,
2008-09-18, 01:12:04,VALID,1011.48,VALID,0,VALID,94.4907,VALID,0.105969,VALID,23.4194,VALID,85,VALID,0,
2008-09-18, 01:13:04,VALID,1011.47,VALID,0,VALID,94.4678,VALID,0.105969,VALID,23.4194,VALID,85,VALID,0,
2008-09-18, 01:14:04,VALID,1011.47,VALID,0,VALID,94.4526,VALID,0.105969,VALID,23.4194,VALID,85,VALID,0,
2008-09-18, 01:15:04,VALID,1011.44,VALID,0,VALID,94.4297,VALID,0.105969,VALID,23.4194,VALID,85,VALID,0,
2008-09-18, 01:16:04,VALID,1011.43,VALID,0,VALID,94.445,VALID,0.105969,VALID,23.3787,VALID,85,VALID,0,
2008-09-18, 01:17:04,VALID,1011.41,VALID,0,VALID,94.4373,VALID,0.105969,VALID,23.4194,VALID,85,VALID,0,
2008-09-18, 01:18:04,VALID,1011.4,VALID,0,VALID,94.4297,VALID,0.105969,VALID,23.3805,VALID,85,VALID,0,
2008-09-18, 01:19:04,VALID,1011.38,VALID,0,VALID,94.4526,VALID,0.105969,VALID,23.4,VALID,85,VALID,0,
2008-09-18, 01:20:04,VALID,1011.38,VALID,0,VALID,94.4678,VALID,0.105969,VALID,23.4194,VALID,85,VALID,0,
2008-09-18, 01:21:04,VALID,1011.42,VALID,0,VALID,94.4907,VALID,0,VALID,23.4017,VALID,85,VALID,0,
2008-09-18, 01:22:04,VALID,1011.39,VALID,0,VALID,94.5136,VALID,0,VALID,23.4017,VALID,85,VALID,0,
2008-09-18, 01:23:04,VALID,1011.39,VALID,0,VALID,94.5593,VALID,0,VALID,23.423,VALID,85,VALID,0,
2008-09-18, 01:24:04,VALID,1011.39,VALID,0,VALID,94.5898,VALID,0,VALID,23.4212,VALID,85,VALID,0,
2008-09-18, 01:25:04,VALID,1011.42,VALID,0,VALID,94.6051,VALID,0,VALID,23.4212,VALID,85,VALID,0,
2008-09-18, 01:26:04,VALID,1011.38,VALID,0,VALID,94.5822,VALID,0,VALID,23.4,VALID,85,VALID,0,
2008-09-18, 01:27:04,VALID,1011.37,VALID,0,VALID,94.5441,VALID,0,VALID,23.361,VALID,85,VALID,0,
2008-09-18, 01:28:04,VALID,1011.38,VALID,0,VALID,94.4678,VALID,0,VALID,23.3823,VALID,85,VALID,0,
2008-09-18, 01:29:04,VALID,1011.37,VALID,0,VALID,94.4678,VALID,0,VALID,23.3805,VALID,85,VALID,0.237109,
2008-09-18, 01:30:04,VALID,1011.35,VALID,0,VALID,94.4755,VALID,0,VALID,23.3805,VALID,85,VALID,0.328125,
2008-09-18, 01:31:04,VALID,1011.37,VALID,0,VALID,94.4678,VALID,0,VALID,23.3628,VALID,85,VALID,0.283203,
2008-09-18, 01:32:04,VALID,1011.38,VALID,0,VALID,94.445,VALID,0,VALID,23.3823,VALID,85,VALID,0.190234,
2008-09-18, 01:33:04,VALID,1011.37,VALID,0,VALID,94.4145,VALID,0,VALID,23.3628,VALID,85,VALID,0.0914062,
2008-09-18, 01:34:04,VALID,1011.36,VALID,0,VALID,94.3916,VALID,0,VALID,23.3628,VALID,85,VALID,0.0304688,
2008-09-18, 01:35:04,VALID,1011.37,VALID,0,VALID,94.4145,VALID,0,VALID,23.3433,VALID,85,VALID,0,
2008-09-18, 01:36:04,VALID,1011.35,VALID,0,VALID,94.4373,VALID,0,VALID,23.3238,VALID,85,VALID,0,
2008-09-18, 01:37:04,VALID,1011.33,VALID,0,VALID,94.4526,VALID,0,VALID,23.3238,VALID,85,VALID,0,
2008-09-18, 01:38:04,VALID,1011.3,VALID,0,VALID,94.4297,VALID,0,VALID,23.3238,VALID,85,VALID,0,
2008-09-18, 01:39:04,VALID,1011.34,VALID,0,VALID,94.4145,VALID,0,VALID,23.2848,VALID,85,VALID,0,
2008-09-18, 01:40:04,VALID,1011.28,VALID,0,VALID,94.3992,VALID,0,VALID,23.2654,VALID,85,VALID,0,
2008-09-18, 01:41:04,VALID,1011.31,VALID,0,VALID,94.4068,VALID,0,VALID,23.2459,VALID,85,VALID,0,
2008-09-18, 01:42:04,VALID,1011.29,VALID,0,VALID,94.3916,VALID,0,VALID,23.2264,VALID,85,VALID,0,
2008-09-18, 01:43:04,VALID,1011.29,VALID,0,VALID,94.4145,VALID,0,VALID,23.2069,VALID,85,VALID,0,
2008-09-18, 01:44:04,VALID,1011.25,VALID,0,VALID,94.3839,VALID,0,VALID,23.2069,VALID,85,VALID,0,
2008-09-18, 01:45:04,VALID,1011.28,VALID,0,VALID,94.3992,VALID,0,VALID,23.1874,VALID,85,VALID,0,
2008-09-18, 01:46:04,VALID,1011.27,VALID,0,VALID,94.4297,VALID,0,VALID,23.1662,VALID,85,VALID,0,
2008-09-18, 01:47:04,VALID,1011.25,VALID,0,VALID,94.4602,VALID,0,VALID,23.1679,VALID,85,VALID,0,
2008-09-18, 01:48:04,VALID,1011.24,VALID,0,VALID,94.4602,VALID,0,VALID,23.1679,VALID,85,VALID,0,
2008-09-18, 01:49:04,VALID,1011.22,VALID,0,VALID,94.4678,VALID,0,VALID,23.1874,VALID,85,VALID,0,
2008-09-18, 01:50:04,VALID,1011.21,VALID,0,VALID,94.4755,VALID,0,VALID,23.129,VALID,85,VALID,0,
2008-09-18, 01:51:04,VALID,1011.19,VALID,0,VALID,94.4831,VALID,0,VALID,23.129,VALID,85,VALID,0,
2008-09-18, 01:52:04,VALID,1011.2,VALID,0,VALID,94.5136,VALID,0,VALID,23.1077,VALID,85,VALID,0,
2008-09-18, 01:53:04,VALID,1011.2,VALID,0,VALID,94.5136,VALID,0,VALID,23.1095,VALID,85,VALID,0,
2008-09-18, 01:54:04,VALID,1011.19,VALID,0,VALID,94.5288,VALID,0,VALID,23.1095,VALID,85,VALID,0,
2008-09-18, 01:55:04,VALID,1011.18,VALID,0,VALID,94.567,VALID,0,VALID,23.1095,VALID,85,VALID,0,
2008-09-18, 01:56:04,VALID,1011.22,VALID,0,VALID,94.5898,VALID,0,VALID,23.0883,VALID,85,VALID,0,
2008-09-18, 01:57:04,VALID,1011.19,VALID,0,VALID,94.6051,VALID,0,VALID,23.0883,VALID,85,VALID,0,
2008-09-18, 01:58:04,VALID,1011.19,VALID,0,VALID,94.5975,VALID,0,VALID,23.1095,VALID,85,VALID,0,
2008-09-18, 01:59:04,VALID,1011.21,VALID,0,VALID,94.628,VALID,0,VALID,23.0688,VALID,85,VALID,0,
2008-09-18, 02:00:04,VALID,1011.18,VALID,0,VALID,94.6356,VALID,0,VALID,23.1095,VALID,85,VALID,0,
2008-09-18, 02:01:04,VALID,1011.17,VALID,0,VALID,94.6508,VALID,0,VALID,23.0688,VALID,85,VALID,0,
2008-09-18, 02:02:04,VALID,1011.16,VALID,0,VALID,94.6585,VALID,0,VALID,23.0688,VALID,85,VALID,0,
2008-09-18, 02:03:04,VALID,1011.17,VALID,0,VALID,94.689,VALID,0,VALID,23.0705,VALID,85,VALID,0,
2008-09-18, 02:04:04,VALID,1011.14,VALID,0,VALID,94.7042,VALID,0,VALID,23.0705,VALID,85,VALID,0,
2008-09-18, 02:05:04,VALID,1011.14,VALID,0,VALID,94.7271,VALID,0,VALID,23.0705,VALID,85,VALID,0,
2008-09-18, 02:06:04,VALID,1011.14,VALID,0,VALID,94.7652,VALID,0,VALID,23.09,VALID,85,VALID,0,
2008-09-18, 02:07:04,VALID,1011.12,VALID,0,VALID,94.7576,VALID,0,VALID,23.09,VALID,85,VALID,0,
2008-09-18, 02:08:04,VALID,1011.14,VALID,0,VALID,94.7424,VALID,0,VALID,23.0883,VALID,85,VALID,0,
2008-09-18, 02:09:04,VALID,1011.13,VALID,0,VALID,94.7119,VALID,0,VALID,23.0883,VALID,85,VALID,0,
2008-09-18, 02:10:04,VALID,1011.1,VALID,0,VALID,94.7042,VALID,0,VALID,23.09,VALID,85,VALID,0,
2008-09-18, 02:11:04,VALID,1011.09,VALID,0,VALID,94.6966,VALID,0,VALID,23.09,VALID,85,VALID,0,
2008-09-18, 02:12:04,VALID,1011.09,VALID,0,VALID,94.6585,VALID,0,VALID,23.0705,VALID,85,VALID,0,
2008-09-18, 02:13:04,VALID,1011.07,VALID,0,VALID,94.6585,VALID,0,VALID,23.0705,VALID,85,VALID,0,
2008-09-18, 02:14:04,VALID,1011.08,VALID,0,VALID,94.6585,VALID,0,VALID,23.09,VALID,85,VALID,0,
2008-09-18, 02:15:04,VALID,1011.06,VALID,0,VALID,94.6508,VALID,0,VALID,23.0688,VALID,85,VALID,0,
2008-09-18, 02:16:04,VALID,1011.06,VALID,0,VALID,94.6737,VALID,0,VALID,23.1112,VALID,85,VALID,0,
2008-09-18, 02:17:04,VALID,1011.06,VALID,0,VALID,94.6737,VALID,0,VALID,23.09,VALID,85,VALID,0,
2008-09-18, 02:18:04,VALID,1011.05,VALID,0,VALID,94.689,VALID,0,VALID,23.09,VALID,85,VALID,0,
2008-09-18, 02:19:04,VALID,1011.03,VALID,0,VALID,94.6966,VALID,0,VALID,23.1095,VALID,85,VALID,0,
2008-09-18, 02:20:04,VALID,1011.02,VALID,0,VALID,94.7119,VALID,0,VALID,23.09,VALID,85,VALID,0,
2008-09-18, 02:21:04,VALID,1011.02,VALID,0,VALID,94.75,VALID,0,VALID,23.129,VALID,85,VALID,0,
2008-09-18, 02:22:04,VALID,1011.01,VALID,0,VALID,94.7347,VALID,0,VALID,23.1272,VALID,85,VALID,0,
2008-09-18, 02:23:04,VALID,1011,VALID,0,VALID,94.7271,VALID,0,VALID,23.1485,VALID,85,VALID,0,
2008-09-18, 02:24:04,VALID,1011,VALID,0,VALID,94.689,VALID,0,VALID,23.1095,VALID,85,VALID,0,
2008-09-18, 02:25:04,VALID,1011,VALID,0,VALID,94.6432,VALID,0,VALID,23.1095,VALID,85,VALID,0,
2008-09-18, 02:26:04,VALID,1010.99,VALID,0,VALID,94.628,VALID,0,VALID,23.09,VALID,85,VALID,0,
2008-09-18, 02:27:04,VALID,1010.97,VALID,0,VALID,94.628,VALID,0,VALID,23.0493,VALID,85,VALID,0,
2008-09-18, 02:28:04,VALID,1010.94,VALID,0,VALID,94.6356,VALID,0,VALID,23.0705,VALID,85,VALID,0,
2008-09-18, 02:29:04,VALID,1010.96,VALID,0,VALID,94.6508,VALID,0,VALID,23.0493,VALID,85,VALID,0,
2008-09-18, 02:30:04,VALID,1010.95,VALID,0,VALID,94.6585,VALID,0,VALID,23.0493,VALID,85,VALID,0,
2008-09-18, 02:31:04,VALID,1010.94,VALID,0,VALID,94.6737,VALID,0,VALID,23.0493,VALID,85,VALID,0,
2008-09-18, 02:32:04,VALID,1010.96,VALID,0,VALID,94.6508,VALID,0,VALID,23.0511,VALID,85,VALID,0,
2008-09-18, 02:33:04,VALID,1010.94,VALID,0,VALID,94.6814,VALID,0,VALID,23.0511,VALID,85,VALID,0,
2008-09-18, 02:34:04,VALID,1010.96,VALID,0,VALID,94.6737,VALID,0,VALID,23.0121,VALID,85,VALID,0,
2008-09-18, 02:35:04,VALID,1010.93,VALID,0,VALID,94.6432,VALID,0,VALID,23.0121,VALID,85,VALID,0,
2008-09-18, 02:36:04,VALID,1010.9,VALID,0,VALID,94.6814,VALID,0,VALID,23.0333,VALID,85,VALID,0,
2008-09-18, 02:37:04,VALID,1010.92,VALID,0,VALID,94.6966,VALID,0,VALID,23.0121,VALID,85,VALID,0,
2008-09-18, 02:38:04,VALID,1010.92,VALID,0,VALID,94.6661,VALID,0,VALID,22.9926,VALID,85,VALID,0,
2008-09-18, 02:39:04,VALID,1010.9,VALID,0,VALID,94.689,VALID,0,VALID,22.9926,VALID,85,VALID,0,
2008-09-18, 02:40:04,VALID,1010.91,VALID,0,VALID,94.7347,VALID,0,VALID,23.0316,VALID,85,VALID,0,
2008-09-18, 02:41:04,VALID,1010.9,VALID,0,VALID,94.7652,VALID,0,VALID,22.9909,VALID,85,VALID,0,
2008-09-18, 02:42:04,VALID,1010.9,VALID,0,VALID,94.811,VALID,0,VALID,23.0121,VALID,85,VALID,0,
2008-09-18, 02:43:04,VALID,1010.89,VALID,0,VALID,94.7957,VALID,0,VALID,23.0316,VALID,85,VALID,0,
2008-09-18, 02:44:04,VALID,1010.9,VALID,0,VALID,94.8034,VALID,0,VALID,23.0121,VALID,85,VALID,0,
2008-09-18, 02:45:04,VALID,1010.87,VALID,0,VALID,94.7729,VALID,0,VALID,23.0121,VALID,85,VALID,0,
2008-09-18, 02:46:04,VALID,1010.89,VALID,0,VALID,94.8034,VALID,0,VALID,23.0121,VALID,85,VALID,0,
2008-09-18, 02:47:04,VALID,1010.88,VALID,0,VALID,94.7957,VALID,0,VALID,23.0121,VALID,85,VALID,0,
2008-09-18, 02:48:04,VALID,1010.91,VALID,0,VALID,94.7881,VALID,0,VALID,23.0316,VALID,85,VALID,0,
2008-09-18, 02:49:04,VALID,1010.89,VALID,0,VALID,94.75,VALID,0,VALID,23.0121,VALID,85,VALID,0,
2008-09-18, 02:50:04,VALID,1010.88,VALID,0,VALID,94.75,VALID,0,VALID,22.9926,VALID,85,VALID,0,
2008-09-18, 02:51:04,VALID,1010.87,VALID,0,VALID,94.7119,VALID,0,VALID,22.9731,VALID,85,VALID,0,
2008-09-18, 02:52:04,VALID,1010.86,VALID,0,VALID,94.6814,VALID,0,VALID,22.9536,VALID,85,VALID,0,
2008-09-18, 02:53:04,VALID,1010.86,VALID,0,VALID,94.6737,VALID,0,VALID,22.9342,VALID,85,VALID,0,
2008-09-18, 02:54:04,VALID,1010.84,VALID,0,VALID,94.6661,VALID,0,VALID,22.9536,VALID,85,VALID,0,
2008-09-18, 02:55:04,VALID,1010.89,VALID,0,VALID,94.6661,VALID,0,VALID,22.9536,VALID,85,VALID,0,
2008-09-18, 02:56:04,VALID,1010.87,VALID,0,VALID,94.6508,VALID,0,VALID,22.9342,VALID,85,VALID,0,
2008-09-18, 02:57:04,VALID,1010.87,VALID,0,VALID,94.6585,VALID,0,VALID,22.9342,VALID,85,VALID,0,
2008-09-18, 02:58:04,VALID,1010.86,VALID,0,VALID,94.6356,VALID,0,VALID,22.9342,VALID,85,VALID,0,
2008-09-18, 02:59:04,VALID,1010.88,VALID,0,VALID,94.5975,VALID,0,VALID,22.8952,VALID,85,VALID,0,
2008-09-18, 03:00:04,VALID,1010.89,VALID,0,VALID,94.5898,VALID,0,VALID,22.874,VALID,85,VALID,0,
2008-09-18, 03:01:04,VALID,1010.87,VALID,0,VALID,94.5822,VALID,0,VALID,22.874,VALID,85,VALID,0,
2008-09-18, 03:02:04,VALID,1010.87,VALID,0,VALID,94.5822,VALID,0,VALID,22.8757,VALID,85,VALID,0,
2008-09-18, 03:03:04,VALID,1010.87,VALID,0,VALID,94.6127,VALID,0,VALID,22.8952,VALID,85,VALID,0,
2008-09-18, 03:04:04,VALID,1010.88,VALID,0,VALID,94.6356,VALID,0,VALID,22.8952,VALID,85,VALID,0,
2008-09-18, 03:05:04,VALID,1010.88,VALID,0,VALID,94.6508,VALID,0,VALID,22.874,VALID,85,VALID,0,
2008-09-18, 03:06:04,VALID,1010.88,VALID,0,VALID,94.6737,VALID,0,VALID,22.8757,VALID,85,VALID,0,
2008-09-18, 03:07:04,VALID,1010.88,VALID,0,VALID,94.6814,VALID,0,VALID,22.8562,VALID,85,VALID,0,
2008-09-18, 03:08:04,VALID,1010.87,VALID,0,VALID,94.6661,VALID,0,VALID,22.8562,VALID,85,VALID,0,
2008-09-18, 03:09:04,VALID,1010.83,VALID,0,VALID,94.689,VALID,0,VALID,22.8562,VALID,85,VALID,0,
2008-09-18, 03:10:04,VALID,1010.83,VALID,0,VALID,94.7119,VALID,0,VALID,22.8757,VALID,85,VALID,0,
2008-09-18, 03:11:04,VALID,1010.83,VALID,0,VALID,94.7271,VALID,0,VALID,22.8545,VALID,85,VALID,0,
2008-09-18, 03:12:04,VALID,1010.87,VALID,0,VALID,94.7042,VALID,0,VALID,22.835,VALID,85,VALID,0,
2008-09-18, 03:13:04,VALID,1010.88,VALID,0,VALID,94.7271,VALID,0,VALID,22.8155,VALID,85,VALID,0,
2008-09-18, 03:14:04,VALID,1010.89,VALID,0,VALID,94.7576,VALID,0,VALID,22.8562,VALID,85,VALID,0,
2008-09-18, 03:15:04,VALID,1010.9,VALID,0,VALID,94.7805,VALID,0,VALID,22.8562,VALID,85,VALID,0,
2008-09-18, 03:16:04,VALID,1010.92,VALID,0,VALID,94.8186,VALID,0,VALID,22.8757,VALID,85,VALID,0,
2008-09-18, 03:17:04,VALID,1010.88,VALID,0,VALID,94.872,VALID,0,VALID,22.8952,VALID,85,VALID,0,
2008-09-18, 03:18:04,VALID,1010.88,VALID,0,VALID,94.9025,VALID,0,VALID,22.9342,VALID,85,VALID,0,
2008-09-18, 03:19:04,VALID,1010.87,VALID,0,VALID,94.8796,VALID,0,VALID,22.9342,VALID,85,VALID,0,
2008-09-18, 03:20:04,VALID,1010.88,VALID,0,VALID,94.811,VALID,0,VALID,22.9147,VALID,85,VALID,0,
2008-09-18, 03:21:04,VALID,1010.9,VALID,0,VALID,94.7652,VALID,0,VALID,22.8952,VALID,85,VALID,0,
2008-09-18, 03:22:04,VALID,1010.9,VALID,0,VALID,94.7195,VALID,0,VALID,22.874,VALID,85,VALID,0,
2008-09-18, 03:23:04,VALID,1010.9,VALID,0,VALID,94.6737,VALID,0,VALID,22.8545,VALID,85,VALID,0,
2008-09-18, 03:24:04,VALID,1010.9,VALID,0,VALID,94.6432,VALID,0,VALID,22.874,VALID,85,VALID,0,
2008-09-18, 03:25:04,VALID,1010.89,VALID,0,VALID,94.6585,VALID,0,VALID,22.8757,VALID,85,VALID,0,
2008-09-18, 03:26:04,VALID,1010.89,VALID,0,VALID,94.6356,VALID,0,VALID,22.8757,VALID,85,VALID,0,
2008-09-18, 03:27:04,VALID,1010.86,VALID,0,VALID,94.6356,VALID,0,VALID,22.8952,VALID,85,VALID,0,
2008-09-18, 03:28:04,VALID,1010.87,VALID,0,VALID,94.6432,VALID,0,VALID,22.874,VALID,85,VALID,0,
2008-09-18, 03:29:04,VALID,1010.87,VALID,0,VALID,94.628,VALID,0,VALID,22.8952,VALID,85,VALID,0,
2008-09-18, 03:30:04,VALID,1010.89,VALID,0,VALID,94.6356,VALID,0,VALID,22.8757,VALID,85,VALID,0,
2008-09-18, 03:31:04,VALID,1010.88,VALID,0,VALID,94.6432,VALID,0,VALID,22.874,VALID,85,VALID,0,
2008-09-18, 03:32:04,VALID,1010.88,VALID,0,VALID,94.628,VALID,0,VALID,22.8952,VALID,85,VALID,0,
2008-09-18, 03:33:04,VALID,1010.9,VALID,0,VALID,94.6203,VALID,0.105969,VALID,22.8545,VALID,85,VALID,0,
2008-09-18, 03:34:04,VALID,1010.9,VALID,0,VALID,94.5746,VALID,0,VALID,22.8757,VALID,85,VALID,0,
2008-09-18, 03:35:04,VALID,1010.87,VALID,0,VALID,94.6127,VALID,0,VALID,22.874,VALID,85,VALID,0,
2008-09-18, 03:36:04,VALID,1010.85,VALID,0,VALID,94.6203,VALID,0.105969,VALID,22.8545,VALID,85,VALID,0,
2008-09-18, 03:37:04,VALID,1010.84,VALID,0,VALID,94.6356,VALID,0.105969,VALID,22.8545,VALID,85,VALID,0,
2008-09-18, 03:38:04,VALID,1010.85,VALID,0,VALID,94.6508,VALID,0,VALID,22.8757,VALID,85,VALID,0,
2008-09-18, 03:39:04,VALID,1010.81,VALID,0,VALID,94.6661,VALID,0,VALID,22.8545,VALID,85,VALID,0,
2008-09-18, 03:40:04,VALID,1010.84,VALID,0,VALID,94.689,VALID,0.105969,VALID,22.8952,VALID,85,VALID,0,
2008-09-18, 03:41:04,VALID,1010.86,VALID,0,VALID,94.75,VALID,0.105969,VALID,22.9129,VALID,85,VALID,0,
2008-09-18, 03:42:04,VALID,1010.85,VALID,0,VALID,94.8034,VALID,0,VALID,22.9536,VALID,85,VALID,0,
2008-09-18, 03:43:04,VALID,1010.85,VALID,0,VALID,94.8415,VALID,0,VALID,22.9519,VALID,85,VALID,0,
2008-09-18, 03:44:04,VALID,1010.84,VALID,0,VALID,94.8796,VALID,0.105969,VALID,23.0103,VALID,85,VALID,0,
2008-09-18, 03:45:04,VALID,1010.86,VALID,0,VALID,94.9254,VALID,0.105969,VALID,23.0316,VALID,85,VALID,0,
2008-09-18, 03:46:04,VALID,1010.84,VALID,0,VALID,94.9711,VALID,0.105969,VALID,23.0493,VALID,85,VALID,0,
2008-09-18, 03:47:04,VALID,1010.83,VALID,0,VALID,95.0016,VALID,0,VALID,23.0883,VALID,85,VALID,0,
2008-09-18, 03:48:04,VALID,1010.83,VALID,0,VALID,95.0169,VALID,0.105969,VALID,23.1485,VALID,85,VALID,0.217578,
2008-09-18, 03:49:04,VALID,1010.88,VALID,0,VALID,94.9864,VALID,0,VALID,23.1679,VALID,85,VALID,0.255078,
2008-09-18, 03:50:04,VALID,1010.88,VALID,0,VALID,94.9635,VALID,0,VALID,23.1662,VALID,85,VALID,0.123828,
2008-09-18, 03:51:04,VALID,1010.87,VALID,0,VALID,94.9178,VALID,0,VALID,23.1857,VALID,85,VALID,0,
2008-09-18, 03:52:04,VALID,1010.88,VALID,0,VALID,94.8339,VALID,0,VALID,23.2069,VALID,87,VALID,0.330859,
2008-09-18, 03:53:04,VALID,1010.92,VALID,0,VALID,94.8644,VALID,0,VALID,23.2848,VALID,97,VALID,0.434766,
2008-09-18, 03:54:04,VALID,1010.93,VALID,0,VALID,94.872,VALID,0,VALID,23.3823,VALID,108,VALID,0.403906,
2008-09-18, 03:55:04,VALID,1010.95,VALID,0,VALID,94.7424,VALID,0,VALID,23.322,VALID,108,VALID,0.392188,
2008-09-18, 03:56:04,VALID,1010.93,VALID,0,VALID,94.5746,VALID,0.105969,VALID,23.3628,VALID,103,VALID,0.463672,
2008-09-18, 03:57:04,VALID,1010.94,VALID,0,VALID,94.567,VALID,0,VALID,23.4602,VALID,129,VALID,0.676953,
2008-09-18, 03:58:04,VALID,1010.92,VALID,0,VALID,94.5288,VALID,0,VALID,23.5169,VALID,130,VALID,0.421094,